Maastricht, Netherlands

5:01 PM CET on March 23, 2017 (GMT +0100)
Maastricht-Aachen

Weather History for EHBK - March, 2014

Change the Weather History Date:

Wednesday, March 19, 2014

  Actual Average Record
Temperature  
Mean Temperature 53 °F -  
Max Temperature 60 °F 52 °F 60 °F (2014)
Min Temperature 46 °F 38 °F 26 °F (2006)
Degree Days  
Heating Degree Days 12    
Growing Degree Days 3 (Base 50)    
Moisture  
Dew Point 43 °F    
Average Humidity 68    
Maximum Humidity 87    
Minimum Humidity 39    
Precipitation  
Precipitation 0.00 in 0.07 in - ()
Sea Level Pressure  
Sea Level Pressure 30.19 in    
Wind  
Wind Speed 12 mph ()    
Max Wind Speed 20 mph    
Max Gust Speed -    
Visibility 7.7 miles    
Events Rain    
Averages and records for this station are not official NWS values.
T = Trace of Precipitation, MM = Missing Value Source: Averaged Metar Reports

Daily Weather History Graph

Daily Weather History Graph

Search for Another Location

Airport or City:

Trip Planner

Search our weather history database for the weather conditions in past years. The results will help you decide how hot, cold, wet, or windy it might be!

Date:

Astronomy

Mar. 19, 2014 Rise Set
Actual Time 6:42 AM CET 6:47 PM CET
Civil Twilight 6:09 AM CET 7:20 PM CET
Nautical Twilight 5:30 AM CET 7:59 PM CET
Astronomical Twilight 4:50 AM CET 8:40 PM CET
Moon 10:12 PM CET (3/19) 7:39 AM CET (3/19)
Length of Visible Light 13h 11m
Length of Day
12h 05m
Waning Gibbous, 92% of the Moon is Illuminated
Mar 19
Waning Gibbous
Mar 24
Last Quarter
Mar 30
New
Apr 7
First Quarter
Apr 15
Full

Hourly Weather History & Observations

Time (CET) Temp. Windchill Dew Point Humidity Pressure Visibility Wind Dir Wind Speed Gust Speed Precip Events Conditions
12:00 AM 48 °F - 44 °F 82% 30.06 in 6 mi WSW 13.4 mph - - Rain Heavy Rain
12:25 AM 48.2 °F - 44.6 °F 87% 30.04 in 6.2 mi WSW 12.7 mph - N/A Rain Light Rain
12:55 AM 48.2 °F - 44.6 °F 87% 30.04 in 5.0 mi WSW 13.8 mph - N/A Rain Light Rain
1:00 AM 48 °F - 44 °F 81% 30.08 in 7 mi WSW 11.2 mph - - Rain Light Rain Showers
1:25 AM 48.2 °F - 44.6 °F 87% 30.06 in 6.2 mi WSW 11.5 mph - N/A   Mostly Cloudy
1:55 AM 48.2 °F - 44.6 °F 87% 30.06 in 6.2 mi WSW 11.5 mph - N/A   Mostly Cloudy
2:00 AM 49 °F - 44 °F 75% 30.11 in 7 mi WSW 11.2 mph - - Rain Light Drizzle
2:25 AM 50.0 °F - 42.8 °F 76% 30.09 in 6.2 mi WSW 10.4 mph - N/A   Overcast
2:55 AM 50.0 °F - 42.8 °F 76% 30.09 in 6.2 mi WSW 10.4 mph - N/A Rain Light Rain
3:00 AM 50 °F - 43 °F 68% 30.12 in 9 mi West 11.2 mph - - Rain Light Drizzle
3:25 AM 50.0 °F - 42.8 °F 76% 30.09 in 6.2 mi West 12.7 mph - N/A   Overcast
3:55 AM 50.0 °F - 42.8 °F 76% 30.12 in 6.2 mi West 10.4 mph - N/A Rain Light Rain
4:00 AM 49 °F - 43 °F 71% 30.14 in 11 mi West 8.9 mph - - Rain Rain
4:25 AM 50.0 °F - 42.8 °F 76% 30.12 in 6.2 mi West 9.2 mph - N/A   Mostly Cloudy
4:55 AM 50.0 °F - 42.8 °F 76% 30.12 in 6.2 mi West 8.1 mph - N/A   Scattered Clouds
5:00 AM 49 °F - 42 °F 69% 30.17 in 12 mi West 8.9 mph - -   Partly Cloudy
5:25 AM 50.0 °F - 42.8 °F 76% 30.15 in 6.2 mi West 9.2 mph - N/A   Mostly Cloudy
5:55 AM 48.2 °F - 42.8 °F 82% 30.15 in 6.2 mi West 6.9 mph - N/A   Mostly Cloudy
6:00 AM 49 °F - 42 °F 69% 30.19 in 13 mi WSW 8.9 mph - -   Partly Cloudy
6:25 AM 48.2 °F - 42.8 °F 82% 30.15 in 6.2 mi WSW 8.1 mph - N/A   Mostly Cloudy
6:55 AM 48.2 °F - 42.8 °F 82% 30.18 in 6.2 mi WSW 11.5 mph - N/A   Overcast
7:00 AM 48 °F - 42 °F 73% 30.21 in 11 mi WSW 11.2 mph - -   Partly Cloudy
7:25 AM 46.4 °F 41.5 °F 42.8 °F 87% 30.18 in 6.2 mi WSW 10.4 mph - N/A   Unknown
7:55 AM 48.2 °F - 42.8 °F 82% 30.18 in 6.2 mi WSW 10.4 mph - N/A   Unknown
8:00 AM 48 °F - 43 °F 76% 30.23 in 9 mi WSW 11.2 mph - -   Mostly Cloudy
8:25 AM 48.2 °F - 42.8 °F 82% 30.21 in 6.2 mi WSW 11.5 mph - N/A   Unknown
8:55 AM 48.2 °F - 42.8 °F 82% 30.21 in 6.2 mi WSW 10.4 mph - N/A   Partly Cloudy
9:00 AM 49 °F - 43 °F 74% 30.25 in 11 mi WSW 11.2 mph - -   Scattered Clouds
9:25 AM 50.0 °F - 42.8 °F 76% 30.21 in 6.2 mi WSW 11.5 mph - N/A   Scattered Clouds
9:55 AM 50.0 °F - 42.8 °F 76% 30.24 in 6.2 mi WSW 11.5 mph - N/A   Partly Cloudy
10:00 AM 50 °F - 43 °F 69% 30.26 in 12 mi WSW 11.2 mph - -   Overcast
10:25 AM 51.8 °F - 42.8 °F 71% 30.21 in 6.2 mi WSW 13.8 mph - N/A   Unknown
10:55 AM 53.6 °F - 42.8 °F 67% 30.21 in 6.2 mi WSW 17.3 mph - N/A   Partly Cloudy
11:00 AM 53 °F - 44 °F 63% 30.25 in 10 mi WSW 17.9 mph - -   Partly Cloudy
11:25 AM 53.6 °F - 44.6 °F 72% 30.21 in 6.2 mi WSW 16.1 mph - N/A   Partly Cloudy
11:55 AM 53.6 °F - 42.8 °F 67% 30.21 in 6.2 mi SW 19.6 mph - N/A   Unknown
12:00 PM 55 °F - 43 °F 54% 30.25 in 11 mi WSW 17.9 mph - -  
12:25 PM 55.4 °F - 42.8 °F 63% 30.21 in 6.2 mi WSW 19.6 mph - N/A   Unknown
12:55 PM 57.2 °F - 42.8 °F 59% 30.21 in 6.2 mi SW 19.6 mph - N/A   Unknown
1:00 PM 57 °F - 42 °F 46% 30.24 in 12 mi SW 20.1 mph - -   Partly Cloudy
1:25 PM 57.2 °F - 42.8 °F 59% 30.21 in 6.2 mi WSW 17.3 mph - N/A   Unknown
1:55 PM 59.0 °F - 42.8 °F 55% 30.21 in 6.2 mi SW 19.6 mph - N/A   Unknown
2:00 PM 60 °F - 44 °F 45% 30.24 in 13 mi SW 17.9 mph - -   Mostly Cloudy
2:25 PM 60.8 °F - 42.8 °F 52% 30.21 in 6.2 mi WSW 16.1 mph - N/A   Unknown
2:55 PM 60.8 °F - 42.8 °F 52% 30.21 in 6.2 mi WSW 17.3 mph - N/A   Unknown
3:00 PM 60 °F - 42 °F 39% 30.24 in 15 mi WSW 13.4 mph - -   Partly Cloudy
3:25 PM 59.0 °F - 42.8 °F 55% 30.21 in 6.2 mi WSW 16.1 mph - N/A   Unknown
3:55 PM 59.0 °F - 42.8 °F 55% 30.21 in 6.2 mi WSW 15.0 mph - N/A   Unknown
4:00 PM 59 °F - 42 °F 42% 30.23 in 13 mi WSW 15.7 mph - -   Partly Cloudy
4:25 PM 59.0 °F - 42.8 °F 55% 30.21 in 6.2 mi WSW 16.1 mph - N/A   Unknown
4:55 PM 59.0 °F - 42.8 °F 55% 30.21 in 6.2 mi SW 17.3 mph - N/A   Unknown
5:00 PM 59 °F - 43 °F 43% 30.22 in 13 mi WSW 17.9 mph - -  
5:25 PM 59.0 °F - 42.8 °F 55% 30.18 in 6.2 mi WSW 13.8 mph - N/A   Unknown
5:55 PM 57.2 °F - 42.8 °F 59% 30.21 in 6.2 mi WSW 13.8 mph - N/A   Unknown
6:00 PM 57 °F - 43 °F 49% 30.23 in 12 mi SW 13.4 mph - -   Mostly Cloudy
6:25 PM 55.4 °F - 42.8 °F 63% 30.21 in 6.2 mi SW 15.0 mph - N/A   Unknown
6:55 PM 55.4 °F - 42.8 °F 63% 30.21 in 6.2 mi SW 16.1 mph - N/A   Unknown
7:00 PM 55 °F - 44 °F 55% 30.23 in 11 mi SW 17.9 mph - -   Partly Cloudy
7:25 PM 53.6 °F - 42.8 °F 67% 30.21 in 6.2 mi SW 17.3 mph - N/A   Unknown
7:55 PM 53.6 °F - 42.8 °F 67% 30.21 in 6.2 mi SW 16.1 mph - N/A   Unknown
8:00 PM 53 °F - 43 °F 60% 30.23 in 11 mi SW 15.7 mph - -   Mostly Cloudy
8:25 PM 53.6 °F - 42.8 °F 67% 30.21 in 6.2 mi SW 16.1 mph - N/A   Unknown
8:55 PM 53.6 °F - 42.8 °F 67% 30.21 in 6.2 mi SW 16.1 mph - N/A   Unknown
9:00 PM 52 °F - 43 °F 63% 30.24 in 9 mi SW 15.7 mph - -   Overcast
9:25 PM 51.8 °F - 42.8 °F 71% 30.21 in 6.2 mi SW 13.8 mph - N/A   Unknown
9:55 PM 50.0 °F - 42.8 °F 76% 30.21 in 6.2 mi SW 12.7 mph - N/A   Unknown
10:00 PM 51 °F - 42 °F 63% 30.24 in 9 mi SW 13.4 mph - -  
10:25 PM 50.0 °F - 42.8 °F 76% 30.21 in 6.2 mi SW 12.7 mph - N/A   Unknown
10:55 PM 50.0 °F - 42.8 °F 76% 30.21 in 6.2 mi SSW 13.8 mph - N/A   Unknown
11:00 PM 50 °F - 42 °F 67% 30.24 in 9 mi SSW 13.4 mph - -   Mostly Cloudy
11:25 PM 50.0 °F - 42.8 °F 76% 30.21 in 6.2 mi SSW 13.8 mph - N/A   Unknown
11:55 PM 50.0 °F - 42.8 °F 76% 30.21 in 6.2 mi SW 15.0 mph - N/A   Unknown